Regional Weather Roundup
Issued by NWS Upton, NY

Current Version | Previous Version | Graphics & Text | Print | Product List | Glossary Off
Versions: 1 2 3 4 5 6 7 8 9 10 11 12 13 14 15 16 17 18 19 20 21 22 23 24 25 26 27 28 29 30 31 32 33 34 35 36 37 38 39 40 41 42 43 44 45 46 47 48 49 50

000
ASUS41 KOKX 251309
RWROKX

REGIONAL WEATHER ROUNDUP
NATIONAL WEATHER SERVICE NEW YORK NY
900 AM EDT THU MAY 25 2017

NOTE: "FAIR" INDICATES FEW OR NO CLOUDS BELOW 12,000 FEET WITH NO
SIGNIFICANT WEATHER AND/OR OBSTRUCTIONS TO VISIBILITY.

NYZ071-072-176-178-NJZ106-104-251400-
NEW YORK CITY METRO AREA

CITY           SKY/WX    TMP DP  RH WIND       PRES   REMARKS
Central Park   RAIN      56  55  97 E8G17     29.68S FOG
Wall St Helipt CLOUDY    57  55  94 NE17      29.66R
Bronx Bot Gard   N/A     55  54  94 NE9       29.69S
LaGuardia APRT LGT RAIN  58  55  90 NE13      29.66S FOG
Kennedy INTL   LGT RAIN  57  56  96 E13       29.68F FOG
Breezy Point     N/A     54 N/A N/A E21G28      N/A
Newark/Liberty RAIN      57  55  93 E12       29.66F FOG
Teterboro      LGT RAIN  57  54  89 E12       29.66F FOG
$$

NYZ177-179-078>081-251400-
LONG ISLAND NEW YORK

CITY           SKY/WX    TMP DP  RH WIND       PRES   REMARKS
Jones Beach      N/A     54 N/A N/A E25G32      N/A
Matinecock PT  NOT AVBL
Farmingdale    LGT RAIN  55  54  96 E15G21    29.67F
MacArthur/ISP  LGT RAIN  55  55 100 E16G22    29.69F
Shirley        LGT RAIN  55  32  41 VRB7      29.71F
Mt Sinai Harb    N/A     55 N/A N/A E14         N/A
Westhampton    LGT RAIN  54  52  93 E12G24    29.73F
East Hampton   LGT RAIN  54  53  97 E14       29.73F
Montauk          N/A     55  54  96 E13G22    29.77S
$$

NYZ052-065-067-251400-
HUDSON VALLEY

CITY           SKY/WX    TMP DP  RH WIND       PRES   REMARKS
White Plains   LGT RAIN  55  53  93 E17G25    29.68F
Larchmont Harb   N/A     55 N/A N/A NE35        N/A
Croton O-T Hud   N/A     57 N/A N/A E3          N/A
Newburgh       LGT RAIN  55  55 100 E12G18    29.71F FOG
Montgomery     LGT RAIN  56  53  90 NE9       29.70S
Poughkeepsie   LGT RAIN  56  52  86 E9        29.69F
Albany         LGT RAIN  60  48  64 E3        29.76F
$$

NJZ001-105-106-008-010-013-015-019>022-104-251400-
NEW JERSEY

CITY           SKY/WX    TMP DP  RH WIND       PRES   REMARKS
Newark/Liberty RAIN      57  55  93 E12       29.66F FOG
Teterboro      LGT RAIN  57  54  89 E12       29.66F FOG
Caldwell       LGT RAIN  57  54  89 E15G23    29.67F FOG
Somerville     LGT RAIN  57  56  96 CALM      29.61F FOG
Linden         LGT RAIN  56  54  91 SE14G21   29.65F
Perth Amboy      N/A     54 N/A N/A E21G29      N/A
Sussex         LGT RAIN  56  54  93 NE10      29.67S
Andover          N/A     55  52  89 NE10G17   29.64F
Trenton        LGT RAIN  55  54  96 E16G23    29.60F FOG
Millville      LGT RAIN  57  57 100 E10       29.55F FOG
Atlantic City  RAIN      58  55  90 E13       29.58F FOG
Wrightstown    LGT RAIN  55  54  96 E9        29.59S FOG
Toms River     LGT RAIN  55  54  96 E13G18    29.63F FOG
Belmar         LGT RAIN  54  53  97 E15       29.64F FOG
$$

PAZ047>061-062-071-251400-
EASTERN PENNSYLVANIA

CITY           SKY/WX    TMP DP  RH WIND       PRES   REMARKS
Philadelphia   LGT RAIN  56  54  93 E15       29.58F FOG
Allentown      RAIN      57  53  86 E14G24    29.59F
Scranton       CLOUDY    57  53  86 E7        29.59F
$$

CTZ002-004>006-009-010-012-RIZ004-006-007-MAZ004-011-015-251400-
SOUTHERN NEW ENGLAND
 IN CT

CITY           SKY/WX    TMP DP  RH WIND       PRES   REMARKS
Bradley INTL   LGT RAIN  55  53  93 N10       29.78F
Hartford       LGT RAIN  57  53  86 NE10      29.76F
Danbury        LGT RAIN  54  53  97 E14       29.72F
Wtrbury/Oxford DRIZZLE   54  48  82 E9        29.75F FOG
Bridgeport     LGT RAIN  58  54  86 E17G28    29.72F
Meriden        LGT RAIN  56  54  93 N3        29.75F
New Haven      CLOUDY    57  55  93 E8        29.73F
Chester        LGT RAIN  55  55 100 E12       29.75F
Groton         LGT RAIN  57  54  89 NE14      29.76F
Wilimantic     LGT RAIN  57  54  89 NE14G20   29.79F

 IN RI

CITY           SKY/WX    TMP DP  RH WIND       PRES   REMARKS
Providence     LGT RAIN  55  55 100 NE13      29.82F FOG
Block Island   LGT RAIN  54  54 100 E14G23    29.78S
Westerly       LGT RAIN  57  55  93 NE12G18   29.78S
 IN MA

CITY           SKY/WX    TMP DP  RH WIND       PRES   REMARKS
Boston         LGT RAIN  54  52  93 NE15      29.88R
Worcester      LGT RAIN  50  48  93 NE10G18   29.85S
Westfield      LGT RAIN  55  53  93 N8        29.80F
Provincetown   LGT RAIN  53  50  89 E14       29.87R
Nantucket      FOG       53  51  93 E20G25    29.79F VSB 1
$$

ANZ330-335-338-340-345-350-353-355-251400-
COASTAL MARINE OBSERVATIONS


STATION/POSITION TIME  SKY/WX   TEMP    WIND        PRES    VSBY  WAVE
                                AIR SEA DIR/SP/G                  HT/PER
                 (UTC)          (F)     (DEG/KT/KT) (MB)    (MI)  (FT/S)
NY HARB ENTRANCE 1150            55 56   80/ 21/ 25 1004.2          7/ 7
20 S FIRE ISLAND 1250            54 54   80/ 21/ 23 1003.3          6/ 6
GREAT SOUTH BAY  1230            56 63   80/ 21/ 27   N/A
23 SSW MONTAUK P 1150            53 54              1006.4          6/ 6
15 E BARNEGAT LI 1230               56                N/A           6/ 8
HUDSON CANYON    1150            55 52   80/ 14/ 16 1003.8          5/ 7
KINGS POINT      1242            56 57  100/  5/ 11 1004.5
EXECUTION ROCKS  1245            56                   N/A
CENTRAL LI SOUND NOT AVBL
EASTERN LI SOUND NOT AVBL
ROBBINS REEF     1242            57      80/ 18/ 21 1004.9
$$


>>>>>>>>>>>>>>>>>>>>>>>>>>>> KEY <<<<<<<<<<<<<<<<<<<<<<<<<<<
>                                                          <
>     SKY/WX - Sky Condition/Present Weather               <
>     TMP    - Temperature in Fahrenheit                   <
>     DP     - Dew Point in Fahrenheit                     <
>     RH     - Relative Humidity in Percent                <
>     WIND   - Direction (from) and Speed in MPH           <
>     PRES   - Mean Sea Level Pressure (inches of Hg)      <
>     WCI    - Wind Chill Index                            <
>     VSB    - VISIBILITY IN MILES                         <
>     HX     - HEAT INDEX                                  <
>     TC     - TEMPERATURE IN CELSIUS                      <
>     VRB    - VARIABLE WIND DIRECTION                     <
>                                                          <
>>>>>>>>>>>>>>>>>>>>>>>>>>>> KEY <<<<<<<<<<<<<<<<<<<<<<<<<<<



USA.gov is the U.S. government's official web portal to all federal, state and local government web resources and services.